Columbus, OH

7:14 AM EST on December 07, 2016 (GMT -0500)
Ohio State University

Weather History for KOSU - October, 2011

Change the Weather History Date:

Sunday, October 16, 2011

  Actual Average Record
Temperature  
Mean Temperature 59 °F -  
Max Temperature 73 °F 61 °F 80 °F (2016)
Min Temperature 45 °F 40 °F 35 °F (1997)
Degree Days  
Heating Degree Days 6    
Growing Degree Days 9 (Base 50)    
Moisture  
Dew Point 42 °F    
Average Humidity 57    
Maximum Humidity 74    
Minimum Humidity 36    
Precipitation  
Precipitation 0.00 in - - ()
Sea Level Pressure  
Sea Level Pressure 29.85 in    
Wind  
Wind Speed 9 mph (SW)    
Max Wind Speed 21 mph    
Max Gust Speed 32 mph    
Visibility 10 miles    
Events      
Averages and records for this station are not official NWS values.
T = Trace of Precipitation, MM = Missing Value Source: NWS Daily Summary

Daily Weather History Graph

Daily Weather History Graph

Search for Another Location

Airport or City:

Trip Planner

Search our weather history database for the weather conditions in past years. The results will help you decide how hot, cold, wet, or windy it might be!

Date:

Astronomy

Oct. 16, 2011 Rise Set
Actual Time 7:43 AM EDT 6:51 PM EDT
Civil Twilight 7:16 AM EDT 7:18 PM EDT
Nautical Twilight 6:44 AM EDT 7:50 PM EDT
Astronomical Twilight 6:13 AM EDT 8:21 PM EDT
Moon 9:36 PM EDT (10/16) 11:59 AM EDT (10/16)
Length of Visible Light 12h 02m
Length of Day
11h 07m
Waning Gibbous, 82% of the Moon is Illuminated
Oct 16
Waning Gibbous
Oct 19
Last Quarter
Oct 26
New
Nov 2
First Quarter
Nov 10
Full

Hourly Weather History & Observations

Time (EDT) Temp. Windchill Dew Point Humidity Pressure Visibility Wind Dir Wind Speed Gust Speed Precip Events Conditions
12:53 AM 48.0 °F - 37.0 °F 66% 29.96 in 10.0 mi SW 6.9 mph - N/A   Clear
1:53 AM 48.0 °F - 37.0 °F 66% 29.97 in 10.0 mi SW 6.9 mph - N/A   Partly Cloudy
2:53 AM 48.9 °F - 37.0 °F 64% 29.99 in 10.0 mi SW 6.9 mph - N/A   Scattered Clouds
3:53 AM 46.0 °F 43.1 °F 37.0 °F 71% 29.98 in 10.0 mi SSW 5.8 mph - N/A   Clear
4:53 AM 45.0 °F 42.6 °F 37.0 °F 74% 29.97 in 10.0 mi South 4.6 mph - N/A   Clear
5:53 AM 48.0 °F - 39.0 °F 71% 29.97 in 10.0 mi SSW 4.6 mph - N/A   Overcast
6:53 AM 50.0 °F - 39.9 °F 68% 29.96 in 10.0 mi SSW 8.1 mph - N/A   Overcast
7:53 AM 52.0 °F - 39.0 °F 61% 29.95 in 10.0 mi South 6.9 mph - N/A   Overcast
8:53 AM 53.1 °F - 39.9 °F 61% 29.93 in 10.0 mi South 10.4 mph - N/A   Overcast
9:53 AM 54.0 °F - 39.9 °F 59% 29.90 in 10.0 mi South 10.4 mph - N/A   Overcast
10:53 AM 55.9 °F - 39.9 °F 55% 29.88 in 10.0 mi South 13.8 mph 20.7 mph N/A   Overcast
11:53 AM 59.0 °F - 41.0 °F 51% 29.86 in 10.0 mi SSW 9.2 mph - N/A   Overcast
12:53 PM 66.0 °F - 39.9 °F 38% 29.81 in 10.0 mi SW 17.3 mph 29.9 mph N/A   Overcast
1:53 PM 66.0 °F - 42.1 °F 42% 29.76 in 10.0 mi SW 15.0 mph 18.4 mph N/A   Overcast
2:53 PM 71.1 °F - 43.0 °F 36% 29.74 in 10.0 mi WSW 20.7 mph 32.2 mph N/A   Clear
3:53 PM 71.1 °F - 45.0 °F 39% 29.69 in 10.0 mi SW 15.0 mph 26.5 mph N/A   Scattered Clouds
4:53 PM 73.9 °F - 48.0 °F 40% 29.68 in 10.0 mi West 15.0 mph - N/A   Clear
5:53 PM 71.1 °F - 48.9 °F 45% 29.67 in 10.0 mi West 11.5 mph 19.6 mph 0.00 in   Mostly Cloudy
6:53 PM 69.1 °F - 48.0 °F 47% 29.71 in 10.0 mi WNW 13.8 mph - N/A   Mostly Cloudy
7:53 PM 61.0 °F - 50.0 °F 67% 29.76 in 10.0 mi NW 17.3 mph - 0.00 in   Mostly Cloudy
8:53 PM 59.0 °F - 48.9 °F 69% 29.78 in 10.0 mi WNW 10.4 mph - N/A   Overcast
9:53 PM 57.9 °F - 46.0 °F 65% 29.80 in 10.0 mi NW 10.4 mph - N/A   Overcast
10:53 PM 57.0 °F - 39.9 °F 53% 29.83 in 10.0 mi NW 11.5 mph 19.6 mph N/A   Overcast
11:53 PM 55.0 °F - 39.9 °F 57% 29.85 in 10.0 mi NW 8.1 mph - N/A   Overcast